Wolke Sonne

Wetter Ammerndorf

Gehe zu: Roßtal

Tageswerte vom Sonntag, 16.01.2022

Optionen

Tag:
Erweitert:

Alle Werte vom Sonntag, 16.01.2022

Einen Moment bitte, die Daten werden aufbereitet...

UhrzeitTemperaturBoden 10cmBoden 20cmFeuchteLuftdruckNiederschlagEvapotranspirationWindWindböenWindrichtungSolarstrahlungUV-IndexSonne?Uhrzeit
Diagramm IconDiagramm IconDiagramm IconDiagramm IconDiagramm IconDiagramm IconDiagramm IconDiagramm IconDiagramm IconDiagramm IconDiagramm IconDiagramm IconDiagramm Icon
00:00-0,9 °C 2,8 °C 3,3 °C 95 % 1028,6 hPa 0,0 mm - 0,0 km/h 3,2 km/h S 0,0 W/qm 0,0 nein 00:00
00:05-0,9 °C 2,8 °C 3,3 °C 95 % 1028,6 hPa 0,0 mm 0,0 mm 0,0 km/h 4,7 km/h S 0,0 W/qm 0,0 nein 00:05
00:10-0,9 °C 2,8 °C 3,3 °C 95 % 1028,6 hPa 0,0 mm 0,0 mm 0,0 km/h 4,7 km/h S 0,0 W/qm 0,0 nein 00:10
00:15-0,8 °C 2,8 °C 3,3 °C 95 % 1028,5 hPa 0,0 mm - 0,0 km/h 4,7 km/h SSW 0,0 W/qm 0,0 nein 00:15
00:20-0,8 °C 2,8 °C 3,3 °C 95 % 1028,3 hPa 0,0 mm - 0,0 km/h 4,7 km/h SSW 0,0 W/qm 0,0 nein 00:20
00:25-0,8 °C 2,8 °C 3,3 °C 95 % 1028,2 hPa 0,0 mm - 0,0 km/h 4,7 km/h SSO 0,0 W/qm 0,0 nein 00:25
00:30-0,8 °C 2,8 °C 3,3 °C 95 % 1028,2 hPa 0,0 mm - 0,0 km/h 4,7 km/h S 0,0 W/qm 0,0 nein 00:30
00:35-0,8 °C 2,8 °C 3,3 °C 95 % 1028,3 hPa 0,0 mm - 1,4 km/h 3,2 km/h SSW 0,0 W/qm 0,0 nein 00:35
00:40-0,8 °C 2,8 °C 3,3 °C 95 % 1028,0 hPa 0,0 mm - 1,4 km/h 6,5 km/h SW 0,0 W/qm 0,0 nein 00:40
00:45-0,8 °C 2,8 °C 3,3 °C 95 % 1027,9 hPa 0,0 mm - 3,2 km/h 7,9 km/h SSW 0,0 W/qm 0,0 nein 00:45
00:50-0,8 °C 2,8 °C 3,3 °C 95 % 1027,8 hPa 0,0 mm - 4,7 km/h 7,9 km/h SSW 0,0 W/qm 0,0 nein 00:50
00:55-0,8 °C 2,8 °C 3,3 °C 95 % 1027,8 hPa 0,0 mm - 3,2 km/h 9,7 km/h S 0,0 W/qm 0,0 nein 00:55
01:00-0,8 °C 2,8 °C 3,3 °C 95 % 1027,8 hPa 0,0 mm - 1,4 km/h 9,7 km/h SSO 0,0 W/qm 0,0 nein 01:00
01:05-0,8 °C 2,8 °C 3,3 °C 95 % 1028,2 hPa 0,0 mm 0,0 mm 0,0 km/h 9,7 km/h SSO 0,0 W/qm 0,0 nein 01:05
01:10-0,8 °C 2,8 °C 3,3 °C 95 % 1027,5 hPa 0,0 mm 0,0 mm 0,0 km/h 7,9 km/h SSO 0,0 W/qm 0,0 nein 01:10
01:15-0,8 °C 2,8 °C 3,3 °C 95 % 1027,6 hPa 0,0 mm - 0,0 km/h 4,7 km/h SSO 0,0 W/qm 0,0 nein 01:15
01:20-0,8 °C 2,8 °C 3,3 °C 95 % 1027,7 hPa 0,0 mm - 0,0 km/h 3,2 km/h SSO 0,0 W/qm 0,0 nein 01:20
01:25-0,8 °C 2,8 °C 3,3 °C 95 % 1027,7 hPa 0,0 mm - 0,0 km/h 4,7 km/h SO 0,0 W/qm 0,0 nein 01:25
01:30-0,8 °C 2,8 °C 3,3 °C 95 % 1027,5 hPa 0,0 mm - 0,0 km/h 6,5 km/h S 0,0 W/qm 0,0 nein 01:30
01:35-0,8 °C 2,8 °C 3,3 °C 95 % 1027,1 hPa 0,0 mm - 1,4 km/h 6,5 km/h SSO 0,0 W/qm 0,0 nein 01:35
01:40-0,8 °C 2,8 °C 3,3 °C 95 % 1027,1 hPa 0,0 mm - 1,4 km/h 6,5 km/h SSO 0,0 W/qm 0,0 nein 01:40
01:45-0,9 °C 2,8 °C 3,3 °C 95 % 1027,2 hPa 0,0 mm - 1,4 km/h 6,5 km/h SSO 0,0 W/qm 0,0 nein 01:45
01:50-0,9 °C 2,8 °C 3,3 °C 95 % 1027,3 hPa 0,0 mm - 1,4 km/h 6,5 km/h SSO 0,0 W/qm 0,0 nein 01:50
01:55-0,9 °C 2,8 °C 3,3 °C 95 % 1027,1 hPa 0,0 mm - 3,2 km/h 7,9 km/h SSO 0,0 W/qm 0,0 nein 01:55
UhrzeitTemperaturBoden 10cmBoden 20cmFeuchteLuftdruckNiederschlagEvapotranspirationWindWindböenWindrichtungSolarstrahlungUV-IndexSonne?Uhrzeit
02:00-0,9 °C 2,8 °C 3,3 °C 95 % 1027,1 hPa 0,0 mm - 3,2 km/h 7,9 km/h SSW 0,0 W/qm 0,0 nein 02:00
02:05-0,9 °C 2,8 °C 3,3 °C 95 % 1027,1 hPa 0,0 mm 0,0 mm 3,2 km/h 6,5 km/h SSO 0,0 W/qm 0,0 nein 02:05
02:10-0,9 °C 2,8 °C 3,3 °C 95 % 1027,1 hPa 0,0 mm 0,0 mm 3,2 km/h 7,9 km/h SSO 0,0 W/qm 0,0 nein 02:10
02:15-0,9 °C 2,8 °C 3,3 °C 95 % 1027,4 hPa 0,0 mm - 3,2 km/h 7,9 km/h S 0,0 W/qm 0,0 nein 02:15
02:20-0,9 °C 2,8 °C 3,3 °C 95 % 1027,3 hPa 0,0 mm - 4,7 km/h 7,9 km/h S 0,0 W/qm 0,0 nein 02:20
02:25-0,9 °C 2,8 °C 3,3 °C 95 % 1027,1 hPa 0,0 mm - 4,7 km/h 11,2 km/h SSO 0,0 W/qm 0,0 nein 02:25
02:30-0,9 °C 2,8 °C 3,3 °C 95 % 1026,5 hPa 0,0 mm - 4,7 km/h 11,2 km/h SW 0,0 W/qm 0,0 nein 02:30
02:35-0,9 °C 2,8 °C 3,3 °C 95 % 1026,6 hPa 0,0 mm - 3,2 km/h 11,2 km/h SSW 0,0 W/qm 0,0 nein 02:35
02:40-0,9 °C 2,8 °C 3,3 °C 95 % 1026,8 hPa 0,0 mm - 4,7 km/h 11,2 km/h SSO 0,0 W/qm 0,0 nein 02:40
02:45-0,9 °C 2,8 °C 3,3 °C 95 % 1027,0 hPa 0,0 mm - 4,7 km/h 11,2 km/h S 0,0 W/qm 0,0 nein 02:45
02:50-0,9 °C 2,8 °C 3,3 °C 95 % 1027,2 hPa 0,0 mm - 3,2 km/h 11,2 km/h SSW 0,0 W/qm 0,0 nein 02:50
02:55-0,9 °C 2,8 °C 3,3 °C 95 % 1027,2 hPa 0,0 mm - 1,4 km/h 11,2 km/h SSW 0,0 W/qm 0,0 nein 02:55
03:00-0,9 °C 2,8 °C 3,3 °C 95 % 1027,1 hPa 0,0 mm - 1,4 km/h 9,7 km/h S 0,0 W/qm 0,0 nein 03:00
03:05-0,9 °C 2,8 °C 3,3 °C 95 % 1027,1 hPa 0,0 mm 0,0 mm 3,2 km/h 7,9 km/h S 0,0 W/qm 0,0 nein 03:05
03:10-0,9 °C 2,8 °C 3,3 °C 95 % 1027,1 hPa 0,0 mm 0,0 mm 3,2 km/h 7,9 km/h SSO 0,0 W/qm 0,0 nein 03:10
03:15-0,8 °C 2,8 °C 3,3 °C 95 % 1027,4 hPa 0,0 mm - 4,7 km/h 7,9 km/h S 0,0 W/qm 0,0 nein 03:15
03:20-0,8 °C 2,8 °C 3,3 °C 95 % 1027,3 hPa 0,0 mm - 4,7 km/h 9,7 km/h SW 0,0 W/qm 0,0 nein 03:20
03:25-0,8 °C 2,8 °C 3,3 °C 95 % 1027,3 hPa 0,0 mm - 3,2 km/h 9,7 km/h S 0,0 W/qm 0,0 nein 03:25
03:30-0,8 °C 2,8 °C 3,3 °C 95 % 1027,4 hPa 0,0 mm - 3,2 km/h 9,7 km/h SSW 0,0 W/qm 0,0 nein 03:30
03:35-0,8 °C 2,8 °C 3,3 °C 95 % 1027,3 hPa 0,0 mm - 3,2 km/h 9,7 km/h SSO 0,0 W/qm 0,0 nein 03:35
03:40-0,8 °C 2,8 °C 3,3 °C 95 % 1027,0 hPa 0,0 mm - 3,2 km/h 9,7 km/h SSW 0,0 W/qm 0,0 nein 03:40
03:45-0,8 °C 2,8 °C 3,3 °C 95 % 1027,1 hPa 0,0 mm - 1,4 km/h 7,9 km/h SSW 0,0 W/qm 0,0 nein 03:45
03:50-0,8 °C 2,8 °C 3,3 °C 95 % 1027,1 hPa 0,0 mm - 1,4 km/h 7,9 km/h SSW 0,0 W/qm 0,0 nein 03:50
03:55-0,8 °C 2,8 °C 3,3 °C 95 % 1027,1 hPa 0,0 mm - 3,2 km/h 6,5 km/h SSW 0,0 W/qm 0,0 nein 03:55
UhrzeitTemperaturBoden 10cmBoden 20cmFeuchteLuftdruckNiederschlagEvapotranspirationWindWindböenWindrichtungSolarstrahlungUV-IndexSonne?Uhrzeit
04:00-0,8 °C 2,8 °C 3,3 °C 95 % 1027,0 hPa 0,0 mm - 3,2 km/h 7,9 km/h S 0,0 W/qm 0,0 nein 04:00
04:05-0,8 °C 2,8 °C 3,3 °C 95 % 1026,9 hPa 0,0 mm 0,0 mm 1,4 km/h 7,9 km/h S 0,0 W/qm 0,0 nein 04:05
04:10-0,8 °C 2,8 °C 3,3 °C 95 % 1026,9 hPa 0,0 mm 0,0 mm 1,4 km/h 7,9 km/h S 0,0 W/qm 0,0 nein 04:10
04:15-0,8 °C 2,8 °C 3,3 °C 95 % 1026,9 hPa 0,0 mm - 3,2 km/h 7,9 km/h S 0,0 W/qm 0,0 nein 04:15
04:20-0,8 °C 2,8 °C 3,3 °C 95 % 1026,9 hPa 0,0 mm - 3,2 km/h 9,7 km/h SW 0,0 W/qm 0,0 nein 04:20
04:25-0,8 °C 2,8 °C 3,3 °C 95 % 1026,8 hPa 0,0 mm - 3,2 km/h 9,7 km/h SSO 0,0 W/qm 0,0 nein 04:25
04:30-0,8 °C 2,8 °C 3,3 °C 95 % 1026,8 hPa 0,0 mm - 4,7 km/h 9,7 km/h SSW 0,0 W/qm 0,0 nein 04:30
04:35-0,8 °C 2,8 °C 3,3 °C 95 % 1026,7 hPa 0,0 mm - 4,7 km/h 9,7 km/h WSW 0,0 W/qm 0,0 nein 04:35
04:40-0,9 °C 2,8 °C 3,3 °C 95 % 1026,6 hPa 0,0 mm - 4,7 km/h 9,7 km/h S 0,0 W/qm 0,0 nein 04:40
04:45-0,9 °C 2,8 °C 3,3 °C 95 % 1026,5 hPa 0,0 mm - 3,2 km/h 11,2 km/h SSO 0,0 W/qm 0,0 nein 04:45
04:50-0,9 °C 2,8 °C 3,3 °C 95 % 1026,5 hPa 0,0 mm - 3,2 km/h 11,2 km/h SSW 0,0 W/qm 0,0 nein 04:50
04:55-0,9 °C 2,8 °C 3,3 °C 95 % 1026,5 hPa 0,0 mm - 3,2 km/h 9,7 km/h SSO 0,0 W/qm 0,0 nein 04:55
05:00-0,9 °C 2,8 °C 3,3 °C 95 % 1026,5 hPa 0,0 mm - 1,4 km/h 9,7 km/h SSW 0,0 W/qm 0,0 nein 05:00
05:05-0,9 °C 2,8 °C 3,3 °C 95 % 1026,5 hPa 0,0 mm 0,0 mm 3,2 km/h 6,5 km/h SSW 0,0 W/qm 0,0 nein 05:05
05:10-0,9 °C 2,8 °C 3,3 °C 95 % 1026,6 hPa 0,0 mm 0,0 mm 4,7 km/h 9,7 km/h SSO 0,0 W/qm 0,0 nein 05:10
05:15-0,9 °C 2,8 °C 3,3 °C 95 % 1026,5 hPa 0,0 mm - 4,7 km/h 9,7 km/h SSO 0,0 W/qm 0,0 nein 05:15
05:20-0,9 °C 2,8 °C 3,3 °C 95 % 1026,5 hPa 0,0 mm - 4,7 km/h 9,7 km/h SSW 0,0 W/qm 0,0 nein 05:20
05:25-1,0 °C 2,8 °C 3,3 °C 95 % 1026,4 hPa 0,0 mm - 4,7 km/h 9,7 km/h SSO 0,0 W/qm 0,0 nein 05:25
05:30-1,0 °C 2,8 °C 3,3 °C 95 % 1026,6 hPa 0,0 mm - 4,7 km/h 9,7 km/h S 0,0 W/qm 0,0 nein 05:30
05:35-1,0 °C 2,8 °C 3,3 °C 95 % 1026,5 hPa 0,0 mm - 4,7 km/h 11,2 km/h S 0,0 W/qm 0,0 nein 05:35
05:40-1,1 °C 2,8 °C 3,3 °C 95 % 1026,5 hPa 0,0 mm - 6,5 km/h 13,0 km/h SSW 0,0 W/qm 0,0 nein 05:40
05:45-1,1 °C 2,8 °C 3,3 °C 95 % 1026,5 hPa 0,0 mm - 7,9 km/h 13,0 km/h WSW 0,0 W/qm 0,0 nein 05:45
05:50-1,1 °C 2,8 °C 3,3 °C 95 % 1026,5 hPa 0,0 mm - 6,5 km/h 16,2 km/h SSO 0,0 W/qm 0,0 nein 05:50
05:55-1,2 °C 2,8 °C 3,3 °C 95 % 1026,6 hPa 0,0 mm - 7,9 km/h 16,2 km/h SSO 0,0 W/qm 0,0 nein 05:55
UhrzeitTemperaturBoden 10cmBoden 20cmFeuchteLuftdruckNiederschlagEvapotranspirationWindWindböenWindrichtungSolarstrahlungUV-IndexSonne?Uhrzeit
06:00-1,2 °C 2,8 °C 3,3 °C 95 % 1026,7 hPa 0,0 mm - 7,9 km/h 13,0 km/h SW 0,0 W/qm 0,0 nein 06:00
06:05-1,2 °C 2,8 °C 3,3 °C 95 % 1026,7 hPa 0,0 mm 0,0 mm 4,7 km/h 16,2 km/h S 0,0 W/qm 0,0 nein 06:05
06:10-1,2 °C 2,8 °C 3,3 °C 95 % 1026,8 hPa 0,0 mm 0,0 mm 4,7 km/h 16,2 km/h S 0,0 W/qm 0,0 nein 06:10
06:15-1,1 °C 2,8 °C 3,3 °C 95 % 1026,7 hPa 0,0 mm - 4,7 km/h 16,2 km/h SSW 0,0 W/qm 0,0 nein 06:15
06:20-1,1 °C 2,8 °C 3,3 °C 95 % 1026,7 hPa 0,0 mm - 4,7 km/h 11,2 km/h SO 0,0 W/qm 0,0 nein 06:20
06:25-1,1 °C 2,8 °C 3,3 °C 95 % 1026,7 hPa 0,0 mm - 6,5 km/h 11,2 km/h S 0,0 W/qm 0,0 nein 06:25
06:30-1,1 °C 2,8 °C 3,3 °C 95 % 1026,5 hPa 0,0 mm - 6,5 km/h 11,2 km/h S 0,0 W/qm 0,0 nein 06:30
06:35-1,1 °C 2,8 °C 3,3 °C 95 % 1026,4 hPa 0,0 mm - 4,7 km/h 11,2 km/h SSW 0,0 W/qm 0,0 nein 06:35
06:40-1,2 °C 2,8 °C 3,3 °C 95 % 1026,3 hPa 0,0 mm - 3,2 km/h 11,2 km/h SSO 0,0 W/qm 0,0 nein 06:40
06:45-1,1 °C 2,8 °C 3,3 °C 95 % 1026,5 hPa 0,0 mm - 1,4 km/h 9,7 km/h SSO 0,0 W/qm 0,0 nein 06:45
06:50-1,1 °C 2,8 °C 3,3 °C 95 % 1026,5 hPa 0,0 mm - 1,4 km/h 9,7 km/h SSO 0,0 W/qm 0,0 nein 06:50
06:55-1,1 °C 2,8 °C 3,3 °C 95 % 1026,5 hPa 0,0 mm - 3,2 km/h 6,5 km/h SSW 0,0 W/qm 0,0 nein 06:55
07:00-1,1 °C 2,8 °C 3,3 °C 95 % 1026,5 hPa 0,0 mm - 3,2 km/h 7,9 km/h S 0,0 W/qm 0,0 nein 07:00
07:05-1,1 °C 2,8 °C 3,3 °C 95 % 1026,7 hPa 0,0 mm 0,0 mm 1,4 km/h 7,9 km/h WSW 0,0 W/qm 0,0 nein 07:05
07:10-1,1 °C 2,8 °C 3,3 °C 95 % 1026,6 hPa 0,0 mm 0,0 mm 3,2 km/h 7,9 km/h SSW 0,0 W/qm 0,0 nein 07:10
07:15-1,1 °C 2,8 °C 3,3 °C 95 % 1026,7 hPa 0,0 mm - 3,2 km/h 11,2 km/h WSW 0,0 W/qm 0,0 nein 07:15
07:20-1,1 °C 2,8 °C 3,3 °C 95 % 1026,6 hPa 0,0 mm - 1,4 km/h 11,2 km/h SSW 0,0 W/qm 0,0 nein 07:20
07:25-1,1 °C 2,8 °C 3,3 °C 95 % 1026,5 hPa 0,0 mm - 3,2 km/h 11,2 km/h S 0,0 W/qm 0,0 nein 07:25
07:30-1,1 °C 2,2 °C 3,3 °C 95 % 1026,5 hPa 0,0 mm - 3,2 km/h 9,7 km/h S 0,0 W/qm 0,0 nein 07:30
07:35-1,1 °C 2,8 °C 3,3 °C 95 % 1026,6 hPa 0,0 mm - 4,7 km/h 9,7 km/h S 0,0 W/qm 0,0 nein 07:35
07:40-1,1 °C 2,2 °C 3,3 °C 95 % 1026,7 hPa 0,0 mm - 6,5 km/h 9,7 km/h SW 0,0 W/qm 0,0 nein 07:40
07:45-1,1 °C 2,2 °C 3,3 °C 95 % 1026,7 hPa 0,0 mm - 6,5 km/h 11,2 km/h S 0,0 W/qm 0,0 nein 07:45
07:50-1,1 °C 2,2 °C 3,3 °C 95 % 1026,6 hPa 0,0 mm - 4,7 km/h 11,2 km/h SW 0,0 W/qm 0,0 nein 07:50
07:55-1,1 °C 2,2 °C 3,3 °C 95 % 1026,8 hPa 0,0 mm - 4,7 km/h 11,2 km/h SW 0,0 W/qm 0,0 nein 07:55
UhrzeitTemperaturBoden 10cmBoden 20cmFeuchteLuftdruckNiederschlagEvapotranspirationWindWindböenWindrichtungSolarstrahlungUV-IndexSonne?Uhrzeit
08:00-1,2 °C 2,2 °C 3,3 °C 95 % 1027,0 hPa 0,0 mm - 6,5 km/h 9,7 km/h S 0,0 W/qm 0,0 nein 08:00
08:05-1,1 °C 2,2 °C 3,3 °C 95 % 1027,2 hPa 0,0 mm 0,0 mm 6,5 km/h 11,2 km/h S 0,0 W/qm 0,0 nein 08:05
08:10-1,2 °C 2,2 °C 3,3 °C 95 % 1027,3 hPa 0,0 mm 0,0 mm 3,2 km/h 11,2 km/h SSW 0,0 W/qm 0,0 nein 08:10
08:15-1,1 °C 2,2 °C 3,3 °C 95 % 1027,5 hPa 0,0 mm - 3,2 km/h 11,2 km/h SSW 5,0 W/qm 0,0 nein 08:15
08:20-1,1 °C 2,2 °C 3,3 °C 95 % 1027,5 hPa 0,0 mm - 1,4 km/h 9,7 km/h S 5,0 W/qm 0,0 nein 08:20
08:25-1,1 °C 2,2 °C 3,3 °C 95 % 1027,4 hPa 0,0 mm - 3,2 km/h 7,9 km/h SSW 9,0 W/qm 0,0 nein 08:25
08:30-1,1 °C 2,2 °C 3,3 °C 95 % 1027,4 hPa 0,0 mm - 4,7 km/h 9,7 km/h S 12,0 W/qm 0,0 nein 08:30
08:35-1,1 °C 2,2 °C 3,3 °C 95 % 1027,5 hPa 0,0 mm - 3,2 km/h 11,2 km/h WSW 12,0 W/qm 0,0 nein 08:35
08:40-1,1 °C 2,2 °C 3,3 °C 94 % 1027,5 hPa 0,0 mm - 4,7 km/h 11,2 km/h S 16,0 W/qm 0,0 nein 08:40
08:45-1,1 °C 2,2 °C 3,3 °C 94 % 1027,5 hPa 0,0 mm - 4,7 km/h 11,2 km/h S 16,0 W/qm 0,0 nein 08:45
08:50-1,1 °C 2,2 °C 3,3 °C 94 % 1027,5 hPa 0,0 mm - 4,7 km/h 11,2 km/h SW 18,0 W/qm 0,0 nein 08:50
08:55-1,1 °C 2,2 °C 3,3 °C 95 % 1027,6 hPa 0,0 mm - 3,2 km/h 11,2 km/h S 25,0 W/qm 0,0 nein 08:55
09:00-1,1 °C 2,2 °C 3,3 °C 95 % 1027,6 hPa 0,0 mm - 3,2 km/h 7,9 km/h S 26,0 W/qm 0,0 nein 09:00
09:05-1,0 °C 2,2 °C 3,3 °C 95 % 1027,6 hPa 0,0 mm 0,0 mm 1,4 km/h 9,7 km/h WSW 21,0 W/qm 0,0 nein 09:05
09:10-1,0 °C 2,2 °C 3,3 °C 95 % 1027,5 hPa 0,0 mm 0,0 mm 1,4 km/h 9,7 km/h S 21,0 W/qm 0,0 nein 09:10
09:15-1,0 °C 2,2 °C 3,3 °C 95 % 1027,5 hPa 0,0 mm - 1,4 km/h 6,5 km/h S 28,0 W/qm 0,0 nein 09:15
09:20-0,9 °C 2,2 °C 3,3 °C 94 % 1027,4 hPa 0,0 mm - 1,4 km/h 6,5 km/h S 33,0 W/qm 0,0 nein 09:20
09:25-0,9 °C 2,2 °C 3,3 °C 94 % 1027,4 hPa 0,0 mm - 1,4 km/h 6,5 km/h S 35,0 W/qm 0,0 nein 09:25
09:30-0,9 °C 2,2 °C 3,3 °C 94 % 1027,4 hPa 0,0 mm - 1,4 km/h 4,7 km/h S 30,0 W/qm 0,0 nein 09:30
09:35-0,8 °C 2,2 °C 3,3 °C 94 % 1027,4 hPa 0,0 mm - 1,4 km/h 6,5 km/h S 30,0 W/qm 0,0 nein 09:35
09:40-0,8 °C 2,2 °C 3,3 °C 94 % 1027,4 hPa 0,0 mm - 3,2 km/h 6,5 km/h SSW 21,0 W/qm 0,0 nein 09:40
09:45-0,8 °C 2,2 °C 3,3 °C 94 % 1027,5 hPa 0,0 mm - 3,2 km/h 9,7 km/h S 16,0 W/qm 0,0 nein 09:45
09:50-0,7 °C 2,2 °C 3,3 °C 94 % 1027,5 hPa 0,0 mm - 1,4 km/h 9,7 km/h SW 21,0 W/qm 0,0 nein 09:50
09:55-0,7 °C 2,2 °C 3,3 °C 94 % 1027,5 hPa 0,0 mm - 1,4 km/h 9,7 km/h S 26,0 W/qm 0,0 nein 09:55
UhrzeitTemperaturBoden 10cmBoden 20cmFeuchteLuftdruckNiederschlagEvapotranspirationWindWindböenWindrichtungSolarstrahlungUV-IndexSonne?Uhrzeit
10:00-0,6 °C 2,2 °C 3,3 °C 94 % 1027,6 hPa 0,0 mm - 3,2 km/h 6,5 km/h WSW 26,0 W/qm 0,0 nein 10:00
10:05-0,6 °C 2,2 °C 3,3 °C 94 % 1027,5 hPa 0,0 mm 0,0 mm 3,2 km/h 13,0 km/h SW 28,0 W/qm 0,0 nein 10:05
10:10-0,5 °C 2,2 °C 3,3 °C 94 % 1027,6 hPa 0,0 mm 0,0 mm 3,2 km/h 13,0 km/h SSO 25,0 W/qm 0,0 nein 10:10
10:15-0,4 °C 2,2 °C 3,3 °C 94 % 1027,6 hPa 0,0 mm - 3,2 km/h 13,0 km/h SSO 32,0 W/qm 0,0 nein 10:15
10:20-0,4 °C 2,2 °C 3,3 °C 94 % 1027,6 hPa 0,0 mm - 3,2 km/h 9,7 km/h W 30,0 W/qm 0,0 nein 10:20
10:25-0,4 °C 2,2 °C 3,3 °C 94 % 1027,7 hPa 0,0 mm - 4,7 km/h 9,7 km/h NW 37,0 W/qm 0,0 nein 10:25
10:30-0,4 °C 2,2 °C 3,3 °C 94 % 1027,8 hPa 0,0 mm - 6,5 km/h 14,4 km/h S 33,0 W/qm 0,0 nein 10:30
10:35-0,3 °C 2,2 °C 3,3 °C 94 % 1027,8 hPa 0,0 mm - 6,5 km/h 16,2 km/h SSO 28,0 W/qm 0,0 nein 10:35
10:40-0,3 °C 2,2 °C 3,3 °C 94 % 1027,9 hPa 0,0 mm - 4,7 km/h 16,2 km/h SW 30,0 W/qm 0,0 nein 10:40
10:45-0,3 °C 2,2 °C 3,3 °C 94 % 1027,9 hPa 0,0 mm - 3,2 km/h 16,2 km/h SSW 33,0 W/qm 0,0 nein 10:45
10:50-0,3 °C 2,2 °C 3,3 °C 93 % 1027,9 hPa 0,0 mm - 3,2 km/h 14,4 km/h SSW 28,0 W/qm 0,0 nein 10:50
10:55-0,3 °C 2,2 °C 3,3 °C 93 % 1027,8 hPa 0,0 mm - 4,7 km/h 14,4 km/h S 28,0 W/qm 0,0 nein 10:55
11:00-0,3 °C 2,2 °C 3,3 °C 93 % 1027,9 hPa 0,0 mm - 4,7 km/h 11,2 km/h WSW 33,0 W/qm 0,0 nein 11:00
11:05-0,2 °C 2,2 °C 3,3 °C 93 % 1027,9 hPa 0,0 mm 0,0 mm 6,5 km/h 11,2 km/h WSW 47,0 W/qm 0,0 nein 11:05
11:10-0,2 °C 2,2 °C 3,3 °C 93 % 1028,0 hPa 0,0 mm 0,0 mm 6,5 km/h 25,9 km/h SW 40,0 W/qm 0,0 nein 11:10
11:15-0,3 °C 2,2 °C 3,3 °C 93 % 1027,9 hPa 0,0 mm - 4,7 km/h 25,9 km/h S 35,0 W/qm 0,0 nein 11:15
11:20-0,3 °C 2,2 °C 3,3 °C 93 % 1027,8 hPa 0,0 mm - 4,7 km/h 25,9 km/h SSW 28,0 W/qm 0,0 nein 11:20
11:25-0,3 °C 2,2 °C 3,3 °C 93 % 1027,8 hPa 0,0 mm - 4,7 km/h 16,2 km/h S 37,0 W/qm 0,0 nein 11:25
11:30-0,3 °C 2,2 °C 3,3 °C 93 % 1027,9 hPa 0,0 mm - 4,7 km/h 13,0 km/h WSW 33,0 W/qm 0,0 nein 11:30
11:35-0,3 °C 2,2 °C 3,3 °C 93 % 1027,8 hPa 0,0 mm - 6,5 km/h 13,0 km/h OSO 32,0 W/qm 0,0 nein 11:35
11:40-0,4 °C 2,2 °C 3,3 °C 93 % 1027,9 hPa 0,0 mm - 7,9 km/h 16,2 km/h SSW 30,0 W/qm 0,0 nein 11:40
11:45-0,4 °C 2,2 °C 3,3 °C 92 % 1027,9 hPa 0,0 mm - 9,7 km/h 20,9 km/h SSW 25,0 W/qm 0,0 nein 11:45
11:50-0,4 °C 2,2 °C 3,3 °C 92 % 1028,0 hPa 0,0 mm - 9,7 km/h 20,9 km/h W 23,0 W/qm 0,0 nein 11:50
11:55-0,4 °C 2,2 °C 3,3 °C 92 % 1028,0 hPa 0,0 mm - 7,9 km/h 20,9 km/h WSW 33,0 W/qm 0,0 nein 11:55
UhrzeitTemperaturBoden 10cmBoden 20cmFeuchteLuftdruckNiederschlagEvapotranspirationWindWindböenWindrichtungSolarstrahlungUV-IndexSonne?Uhrzeit
12:00-0,4 °C 2,2 °C 3,3 °C 92 % 1028,0 hPa 0,0 mm - 9,7 km/h 19,4 km/h SW 28,0 W/qm 0,0 nein 12:00
12:05-0,5 °C 2,2 °C 3,3 °C 92 % 1028,2 hPa 0,0 mm 0,0 mm 9,7 km/h 24,1 km/h SSW 23,0 W/qm 0,0 nein 12:05
12:10-0,5 °C 2,2 °C 3,3 °C 92 % 1028,3 hPa 0,0 mm 0,0 mm 6,5 km/h 28,8 km/h SSW 26,0 W/qm 0,0 nein 12:10
12:15-0,6 °C 2,2 °C 3,3 °C 92 % 1028,3 hPa 0,0 mm - 7,9 km/h 28,8 km/h WNW 26,0 W/qm 0,0 nein 12:15
12:20-0,7 °C 2,2 °C 3,3 °C 92 % 1028,3 hPa 0,0 mm - 9,7 km/h 19,4 km/h W 25,0 W/qm 0,0 nein 12:20
12:25-0,7 °C 2,2 °C 3,3 °C 92 % 1028,5 hPa 0,0 mm - 7,9 km/h 19,4 km/h SSW 26,0 W/qm 0,0 nein 12:25
12:30-0,7 °C 2,2 °C 3,3 °C 92 % 1028,5 hPa 0,0 mm - 4,7 km/h 22,7 km/h WSW 44,0 W/qm 0,0 nein 12:30
12:35-0,8 °C 2,2 °C 3,3 °C 92 % 1028,6 hPa 0,0 mm - 6,5 km/h 22,7 km/h SW 44,0 W/qm 0,0 nein 12:35
12:40-0,8 °C 2,2 °C 3,3 °C 91 % 1028,6 hPa 0,0 mm - 7,9 km/h 16,2 km/h W 33,0 W/qm 0,0 nein 12:40
12:45-0,8 °C 2,2 °C 3,3 °C 91 % 1028,7 hPa 0,0 mm - 7,9 km/h 20,9 km/h SW 30,0 W/qm 0,0 nein 12:45
12:50-0,8 °C 2,2 °C 3,3 °C 91 % 1028,7 hPa 0,0 mm - 7,9 km/h 20,9 km/h S 28,0 W/qm 0,0 nein 12:50
12:55-0,8 °C 2,2 °C 3,3 °C 91 % 1028,8 hPa 0,0 mm - 7,9 km/h 20,9 km/h SW 26,0 W/qm 0,0 nein 12:55
13:00-0,8 °C 2,2 °C 3,3 °C 91 % 1028,9 hPa 0,0 mm - 9,7 km/h 17,6 km/h SSW 26,0 W/qm 0,0 nein 13:00
13:05-0,8 °C 2,2 °C 3,3 °C 91 % 1029,0 hPa 0,0 mm 0,1 mm 7,9 km/h 17,6 km/h SSW 33,0 W/qm 0,0 nein 13:05
13:10-0,8 °C 2,2 °C 3,3 °C 91 % 1029,0 hPa 0,0 mm 0,1 mm 7,9 km/h 17,6 km/h S 35,0 W/qm 0,0 nein 13:10
13:15-0,8 °C 2,2 °C 3,3 °C 91 % 1029,0 hPa 0,0 mm - 7,9 km/h 19,4 km/h S 33,0 W/qm 0,0 nein 13:15
13:20-0,8 °C 2,2 °C 3,3 °C 91 % 1029,0 hPa 0,0 mm - 4,7 km/h 19,4 km/h S 35,0 W/qm 0,0 nein 13:20
13:25-0,8 °C 2,2 °C 3,3 °C 91 % 1028,9 hPa 0,0 mm - 4,7 km/h 19,4 km/h SSW 42,0 W/qm 0,0 nein 13:25
13:30-0,8 °C 2,2 °C 3,3 °C 91 % 1028,9 hPa 0,0 mm - 4,7 km/h 14,4 km/h SSW 47,0 W/qm 0,0 nein 13:30
13:35-0,8 °C 2,2 °C 3,3 °C 91 % 1028,8 hPa 0,0 mm - 6,5 km/h 14,4 km/h SSW 39,0 W/qm 0,0 nein 13:35
13:40-0,8 °C 2,2 °C 3,3 °C 91 % 1028,9 hPa 0,0 mm - 4,7 km/h 14,4 km/h SW 39,0 W/qm 0,0 nein 13:40
13:45-0,7 °C 2,2 °C 3,3 °C 92 % 1028,9 hPa 0,0 mm - 1,4 km/h 11,2 km/h S 40,0 W/qm 0,0 nein 13:45
13:50-0,7 °C 2,2 °C 3,3 °C 91 % 1028,7 hPa 0,0 mm - 1,4 km/h 11,2 km/h WSW 54,0 W/qm 0,0 nein 13:50
13:55-0,7 °C 2,2 °C 3,3 °C 92 % 1028,9 hPa 0,0 mm - 1,4 km/h 7,9 km/h SW 44,0 W/qm 0,0 nein 13:55
UhrzeitTemperaturBoden 10cmBoden 20cmFeuchteLuftdruckNiederschlagEvapotranspirationWindWindböenWindrichtungSolarstrahlungUV-IndexSonne?Uhrzeit
14:00-0,6 °C 2,2 °C 3,3 °C 92 % 1028,9 hPa 0,0 mm - 1,4 km/h 7,9 km/h WSW 33,0 W/qm 0,0 nein 14:00
14:05-0,6 °C 2,2 °C 3,3 °C 92 % 1029,0 hPa 0,0 mm 0,1 mm 3,2 km/h 7,9 km/h W 37,0 W/qm 0,0 nein 14:05
14:10-0,6 °C 2,2 °C 3,3 °C 92 % 1028,9 hPa 0,0 mm 0,1 mm 3,2 km/h 11,2 km/h S 25,0 W/qm 0,0 nein 14:10
14:15-0,6 °C 2,2 °C 3,3 °C 92 % 1028,7 hPa 0,0 mm - 4,7 km/h 11,2 km/h SSW 25,0 W/qm 0,0 nein 14:15
14:20-0,6 °C 2,2 °C 3,3 °C 92 % 1028,6 hPa 0,0 mm - 4,7 km/h 13,0 km/h SW 37,0 W/qm 0,0 nein 14:20
14:25-0,6 °C 2,2 °C 3,3 °C 92 % 1028,7 hPa 0,0 mm - 3,2 km/h 13,0 km/h SW 35,0 W/qm 0,0 nein 14:25
14:30-0,6 °C 2,2 °C 3,3 °C 91 % 1028,8 hPa 0,0 mm - 4,7 km/h 13,0 km/h W 46,0 W/qm 0,0 nein 14:30
14:35-0,5 °C 2,2 °C 3,3 °C 91 % 1028,7 hPa 0,0 mm - 4,7 km/h 11,2 km/h WSW 46,0 W/qm 0,0 nein 14:35
14:40-0,5 °C 2,2 °C 3,3 °C 91 % 1028,8 hPa 0,0 mm - 4,7 km/h 11,2 km/h SSW 26,0 W/qm 0,0 nein 14:40
14:45-0,5 °C 2,2 °C 3,3 °C 91 % 1028,9 hPa 0,0 mm - 3,2 km/h 11,2 km/h S 63,0 W/qm 0,0 nein 14:45
14:50-0,5 °C 2,2 °C 3,3 °C 91 % 1029,0 hPa 0,0 mm - 3,2 km/h 11,2 km/h SW 46,0 W/qm 0,0 nein 14:50
14:55-0,4 °C 2,2 °C 3,3 °C 91 % 1028,9 hPa 0,0 mm - 3,2 km/h 11,2 km/h SSW 32,0 W/qm 0,0 nein 14:55
15:00-0,4 °C 2,2 °C 3,3 °C 91 % 1029,0 hPa 0,0 mm - 3,2 km/h 9,7 km/h S 26,0 W/qm 0,0 nein 15:00
15:05-0,4 °C 2,2 °C 3,3 °C 91 % 1029,1 hPa 0,0 mm 0,1 mm 3,2 km/h 11,2 km/h SSW 12,0 W/qm 0,0 nein 15:05
15:10-0,4 °C 2,2 °C 3,3 °C 91 % 1029,1 hPa 0,0 mm 0,1 mm 3,2 km/h 11,2 km/h SW 16,0 W/qm 0,0 nein 15:10
15:15-0,4 °C 2,2 °C 3,3 °C 91 % 1029,2 hPa 0,0 mm - 1,4 km/h 11,2 km/h SSW 18,0 W/qm 0,0 nein 15:15
15:20-0,4 °C 2,2 °C 3,3 °C 91 % 1029,3 hPa 0,0 mm - 3,2 km/h 7,9 km/h SSW 21,0 W/qm 0,0 nein 15:20
15:25-0,3 °C 2,2 °C 3,3 °C 91 % 1029,3 hPa 0,0 mm - 4,7 km/h 11,2 km/h S 19,0 W/qm 0,0 nein 15:25
15:30-0,3 °C 2,2 °C 3,3 °C 91 % 1029,4 hPa 0,0 mm - 4,7 km/h 11,2 km/h SW 18,0 W/qm 0,0 nein 15:30
15:35-0,3 °C 2,2 °C 3,3 °C 91 % 1029,5 hPa 0,0 mm - 4,7 km/h 11,2 km/h SSW 25,0 W/qm 0,0 nein 15:35
15:40-0,3 °C 2,2 °C 3,3 °C 91 % 1029,5 hPa 0,0 mm - 3,2 km/h 11,2 km/h S 26,0 W/qm 0,0 nein 15:40
15:45-0,3 °C 2,8 °C 3,3 °C 91 % 1029,6 hPa 0,0 mm - 4,7 km/h 9,7 km/h SSW 16,0 W/qm 0,0 nein 15:45
15:50-0,3 °C 2,8 °C 3,3 °C 91 % 1029,6 hPa 0,0 mm - 6,5 km/h 11,2 km/h SW 11,0 W/qm 0,0 nein 15:50
15:55-0,3 °C 2,8 °C 3,3 °C 91 % 1029,6 hPa 0,0 mm - 6,5 km/h 13,0 km/h S 9,0 W/qm 0,0 nein 15:55
UhrzeitTemperaturBoden 10cmBoden 20cmFeuchteLuftdruckNiederschlagEvapotranspirationWindWindböenWindrichtungSolarstrahlungUV-IndexSonne?Uhrzeit
16:00-0,3 °C 2,8 °C 3,3 °C 91 % 1029,7 hPa 0,0 mm - 6,5 km/h 17,6 km/h SSW 9,0 W/qm 0,0 nein 16:00
16:05-0,2 °C 2,8 °C 3,3 °C 91 % 1029,6 hPa 0,0 mm 0,1 mm 6,5 km/h 17,6 km/h S 7,0 W/qm 0,0 nein 16:05
16:10-0,2 °C 2,8 °C 3,3 °C 91 % 1029,7 hPa 0,0 mm 0,1 mm 4,7 km/h 17,6 km/h S 5,0 W/qm 0,0 nein 16:10
16:15-0,2 °C 2,8 °C 3,3 °C 91 % 1029,8 hPa 0,0 mm - 6,5 km/h 14,4 km/h WSW 0,0 W/qm 0,0 nein 16:15
16:20-0,2 °C 2,8 °C 3,3 °C 92 % 1029,8 hPa 0,0 mm - 7,9 km/h 17,6 km/h S 0,0 W/qm 0,0 nein 16:20
16:25-0,2 °C 2,8 °C 3,3 °C 92 % 1029,8 hPa 0,0 mm - 4,7 km/h 17,6 km/h S 0,0 W/qm 0,0 nein 16:25
16:30-0,2 °C 2,8 °C 3,3 °C 92 % 1029,8 hPa 0,0 mm - 4,7 km/h 17,6 km/h SSO 0,0 W/qm 0,0 nein 16:30
16:35-0,2 °C 2,8 °C 3,3 °C 92 % 1030,0 hPa 0,0 mm - 6,5 km/h 17,6 km/h SSW 0,0 W/qm 0,0 nein 16:35
16:40-0,2 °C 2,8 °C 3,3 °C 92 % 1030,1 hPa 0,0 mm - 6,5 km/h 14,4 km/h S 0,0 W/qm 0,0 nein 16:40
16:45-0,2 °C 2,8 °C 3,3 °C 92 % 1030,1 hPa 0,0 mm - 4,7 km/h 14,4 km/h SSW 0,0 W/qm 0,0 nein 16:45
16:50-0,2 °C 2,8 °C 3,3 °C 92 % 1030,2 hPa 0,0 mm - 1,4 km/h 14,4 km/h S 0,0 W/qm 0,0 nein 16:50
16:55-0,1 °C 2,8 °C 3,3 °C 92 % 1030,2 hPa 0,0 mm - 3,2 km/h 14,4 km/h SSW 0,0 W/qm 0,0 nein 16:55
17:00-0,1 °C 2,8 °C 3,3 °C 92 % 1030,3 hPa 0,0 mm - 3,2 km/h 11,2 km/h S 0,0 W/qm 0,0 nein 17:00
17:05-0,1 °C 2,8 °C 3,3 °C 92 % 1030,3 hPa 0,0 mm 0,1 mm 1,4 km/h 11,2 km/h S 0,0 W/qm 0,0 nein 17:05
17:10-0,1 °C 2,8 °C 3,3 °C 92 % 1030,4 hPa 0,0 mm 0,1 mm 1,4 km/h 11,2 km/h WSW 0,0 W/qm 0,0 nein 17:10
17:15-0,1 °C 2,8 °C 3,3 °C 92 % 1030,6 hPa 0,0 mm - 1,4 km/h 9,7 km/h SW 0,0 W/qm 0,0 nein 17:15
17:20-0,1 °C 2,8 °C 3,3 °C 92 % 1030,9 hPa 0,0 mm - 1,4 km/h 9,7 km/h S 0,0 W/qm 0,0 nein 17:20
17:25-0,1 °C 2,8 °C 3,3 °C 92 % 1030,9 hPa 0,0 mm - 3,2 km/h 9,7 km/h S 0,0 W/qm 0,0 nein 17:25
17:30-0,1 °C 2,8 °C 3,3 °C 92 % 1030,9 hPa 0,0 mm - 3,2 km/h 13,0 km/h S 0,0 W/qm 0,0 nein 17:30
17:350,0 °C 2,8 °C 3,3 °C 92 % 1030,9 hPa 0,0 mm - 3,2 km/h 13,0 km/h SW 0,0 W/qm 0,0 nein 17:35
17:400,0 °C 2,8 °C 3,3 °C 92 % 1030,9 hPa 0,0 mm - 1,4 km/h 13,0 km/h WSW 0,0 W/qm 0,0 nein 17:40
17:450,0 °C 2,8 °C 3,3 °C 92 % 1031,0 hPa 0,0 mm - 1,4 km/h 9,7 km/h S 0,0 W/qm 0,0 nein 17:45
17:500,0 °C 2,8 °C 3,3 °C 92 % 1031,0 hPa 0,0 mm - 3,2 km/h 11,2 km/h SSW 0,0 W/qm 0,0 nein 17:50
17:550,0 °C 2,8 °C 3,3 °C 92 % 1030,9 hPa 0,0 mm - 1,4 km/h 11,2 km/h SW 0,0 W/qm 0,0 nein 17:55
UhrzeitTemperaturBoden 10cmBoden 20cmFeuchteLuftdruckNiederschlagEvapotranspirationWindWindböenWindrichtungSolarstrahlungUV-IndexSonne?Uhrzeit
18:000,1 °C 2,8 °C 3,3 °C 92 % 1031,0 hPa 0,0 mm - 1,4 km/h 11,2 km/h SW 0,0 W/qm 0,0 nein 18:00
18:050,1 °C 2,8 °C 3,3 °C 92 % 1031,0 hPa 0,0 mm 0,1 mm 1,4 km/h 9,7 km/h S 0,0 W/qm 0,0 nein 18:05
18:100,1 °C 2,8 °C 3,3 °C 92 % 1030,9 hPa 0,0 mm 0,1 mm 1,4 km/h 6,5 km/h SSW 0,0 W/qm 0,0 nein 18:10
18:150,1 °C 2,8 °C 3,3 °C 92 % 1030,9 hPa 0,0 mm - 3,2 km/h 6,5 km/h SW 0,0 W/qm 0,0 nein 18:15
18:200,1 °C 2,8 °C 3,3 °C 92 % 1030,9 hPa 0,0 mm - 3,2 km/h 9,7 km/h WSW 0,0 W/qm 0,0 nein 18:20
18:250,1 °C 2,8 °C 3,3 °C 92 % 1031,0 hPa 0,0 mm - 3,2 km/h 9,7 km/h W 0,0 W/qm 0,0 nein 18:25
18:300,1 °C 2,8 °C 3,3 °C 92 % 1031,0 hPa 0,0 mm - 1,4 km/h 9,7 km/h SSO 0,0 W/qm 0,0 nein 18:30
18:350,1 °C 2,8 °C 3,3 °C 92 % 1031,1 hPa 0,0 mm - 1,4 km/h 9,7 km/h WNW 0,0 W/qm 0,0 nein 18:35
18:400,1 °C 2,8 °C 3,3 °C 92 % 1031,1 hPa 0,0 mm - 1,4 km/h 7,9 km/h SSW 0,0 W/qm 0,0 nein 18:40
18:450,1 °C 2,8 °C 3,3 °C 92 % 1031,2 hPa 0,0 mm - 3,2 km/h 7,9 km/h S 0,0 W/qm 0,0 nein 18:45
18:500,1 °C 2,8 °C 3,3 °C 92 % 1031,2 hPa 0,0 mm - 1,4 km/h 7,9 km/h SW 0,0 W/qm 0,0 nein 18:50
18:550,2 °C 2,8 °C 3,3 °C 92 % 1031,2 hPa 0,0 mm - 1,4 km/h 7,9 km/h SW 0,0 W/qm 0,0 nein 18:55
19:000,2 °C 2,8 °C 3,3 °C 92 % 1031,3 hPa 0,0 mm - 1,4 km/h 7,9 km/h S 0,0 W/qm 0,0 nein 19:00
19:050,2 °C 2,8 °C 3,3 °C 92 % 1031,3 hPa 0,0 mm 0,1 mm 1,4 km/h 4,7 km/h S 0,0 W/qm 0,0 nein 19:05
19:100,2 °C 2,8 °C 3,3 °C 92 % 1031,4 hPa 0,0 mm 0,1 mm 1,4 km/h 4,7 km/h S 0,0 W/qm 0,0 nein 19:10
19:150,2 °C 2,8 °C 3,3 °C 92 % 1031,5 hPa 0,0 mm - 1,4 km/h 4,7 km/h S 0,0 W/qm 0,0 nein 19:15
19:200,2 °C 2,8 °C 3,3 °C 92 % 1031,5 hPa 0,0 mm - 3,2 km/h 6,5 km/h SSW 0,0 W/qm 0,0 nein 19:20
19:250,3 °C 2,8 °C 3,3 °C 92 % 1031,5 hPa 0,0 mm - 1,4 km/h 11,2 km/h WSW 0,0 W/qm 0,0 nein 19:25
19:300,3 °C 2,8 °C 3,3 °C 92 % 1031,5 hPa 0,0 mm - 1,4 km/h 11,2 km/h S 0,0 W/qm 0,0 nein 19:30
19:350,3 °C 2,8 °C 3,3 °C 92 % 1031,5 hPa 0,0 mm - 1,4 km/h 11,2 km/h S 0,0 W/qm 0,0 nein 19:35
19:400,3 °C 2,8 °C 3,3 °C 92 % 1031,4 hPa 0,0 mm - 1,4 km/h 4,7 km/h S 0,0 W/qm 0,0 nein 19:40
19:450,4 °C 2,8 °C 3,3 °C 92 % 1031,5 hPa 0,0 mm - 1,4 km/h 4,7 km/h WNW 0,0 W/qm 0,0 nein 19:45
19:500,4 °C 2,8 °C 3,3 °C 92 % 1031,6 hPa 0,0 mm - 1,4 km/h 6,5 km/h WNW 0,0 W/qm 0,0 nein 19:50
19:550,4 °C 2,8 °C 3,3 °C 92 % 1031,7 hPa 0,0 mm - 0,0 km/h 6,5 km/h SSO 0,0 W/qm 0,0 nein 19:55
UhrzeitTemperaturBoden 10cmBoden 20cmFeuchteLuftdruckNiederschlagEvapotranspirationWindWindböenWindrichtungSolarstrahlungUV-IndexSonne?Uhrzeit
20:000,4 °C 2,8 °C 3,3 °C 92 % 1031,8 hPa 0,0 mm - 1,4 km/h 4,7 km/h SW 0,0 W/qm 0,0 nein 20:00
20:050,4 °C 2,8 °C 3,3 °C 92 % 1031,7 hPa 0,0 mm 0,1 mm 1,4 km/h 11,2 km/h SW 0,0 W/qm 0,0 nein 20:05
20:100,4 °C 2,8 °C 3,3 °C 92 % 1031,7 hPa 0,0 mm 0,1 mm 1,4 km/h 11,2 km/h SW 0,0 W/qm 0,0 nein 20:10
20:150,4 °C 2,8 °C 3,3 °C 92 % 1031,6 hPa 0,0 mm - 1,4 km/h 11,2 km/h S 0,0 W/qm 0,0 nein 20:15
20:200,5 °C 2,8 °C 3,3 °C 92 % 1031,6 hPa 0,0 mm - 1,4 km/h 9,7 km/h SSO 0,0 W/qm 0,0 nein 20:20
20:250,5 °C 2,8 °C 3,3 °C 92 % 1031,6 hPa 0,0 mm - 1,4 km/h 9,7 km/h S 0,0 W/qm 0,0 nein 20:25
20:300,6 °C 2,8 °C 3,3 °C 92 % 1031,7 hPa 0,0 mm - 1,4 km/h 7,9 km/h WSW 0,0 W/qm 0,0 nein 20:30
20:350,6 °C 2,8 °C 3,3 °C 92 % 1031,8 hPa 0,0 mm - 0,0 km/h 7,9 km/h WSW 0,0 W/qm 0,0 nein 20:35
20:400,6 °C 2,8 °C 3,3 °C 92 % 1031,8 hPa 0,0 mm - 0,0 km/h 6,5 km/h WSW 0,0 W/qm 0,0 nein 20:40
20:450,6 °C 2,8 °C 3,3 °C 92 % 1031,8 hPa 0,0 mm - 0,0 km/h 4,7 km/h WSW 0,0 W/qm 0,0 nein 20:45
20:500,6 °C 2,8 °C 3,3 °C 92 % 1031,8 hPa 0,0 mm - 0,0 km/h 3,2 km/h SSO 0,0 W/qm 0,0 nein 20:50
20:550,6 °C 2,8 °C 3,3 °C 92 % 1031,9 hPa 0,0 mm - 0,0 km/h 4,7 km/h SSO 0,0 W/qm 0,0 nein 20:55
21:000,6 °C 2,8 °C 3,3 °C 92 % 1031,9 hPa 0,0 mm - 0,0 km/h 4,7 km/h S 0,0 W/qm 0,0 nein 21:00
21:050,6 °C 2,8 °C 3,3 °C 92 % 1032,0 hPa 0,0 mm 0,1 mm 1,4 km/h 4,7 km/h SW 0,0 W/qm 0,0 nein 21:05
21:100,6 °C 2,8 °C 3,3 °C 92 % 1032,0 hPa 0,0 mm 0,1 mm 1,4 km/h 6,5 km/h SSW 0,0 W/qm 0,0 nein 21:10
21:150,6 °C 2,8 °C 3,3 °C 92 % 1032,0 hPa 0,0 mm - 1,4 km/h 7,9 km/h WSW 0,0 W/qm 0,0 nein 21:15
21:200,6 °C 2,8 °C 3,3 °C 92 % 1031,9 hPa 0,0 mm - 1,4 km/h 7,9 km/h SSW 0,0 W/qm 0,0 nein 21:20
21:250,6 °C 2,8 °C 3,3 °C 92 % 1032,0 hPa 0,0 mm - 1,4 km/h 7,9 km/h S 0,0 W/qm 0,0 nein 21:25
21:300,6 °C 2,8 °C 3,3 °C 93 % 1032,1 hPa 0,0 mm - 1,4 km/h 6,5 km/h S 0,0 W/qm 0,0 nein 21:30
21:350,6 °C 2,8 °C 3,3 °C 93 % 1032,1 hPa 0,0 mm - 3,2 km/h 11,2 km/h SSW 0,0 W/qm 0,0 nein 21:35
21:400,7 °C 2,8 °C 3,3 °C 93 % 1032,1 hPa 0,0 mm - 3,2 km/h 13,0 km/h WSW 0,0 W/qm 0,0 nein 21:40
21:450,7 °C 2,8 °C 3,3 °C 93 % 1032,2 hPa 0,0 mm - 4,7 km/h 13,0 km/h SW 0,0 W/qm 0,0 nein 21:45
21:500,7 °C 2,8 °C 3,3 °C 93 % 1032,3 hPa 0,0 mm - 6,5 km/h 13,0 km/h WSW 0,0 W/qm 0,0 nein 21:50
21:550,7 °C 2,8 °C 3,3 °C 93 % 1032,3 hPa 0,0 mm - 7,9 km/h 11,2 km/h SW 0,0 W/qm 0,0 nein 21:55
UhrzeitTemperaturBoden 10cmBoden 20cmFeuchteLuftdruckNiederschlagEvapotranspirationWindWindböenWindrichtungSolarstrahlungUV-IndexSonne?Uhrzeit
22:000,8 °C 2,8 °C 3,3 °C 93 % 1032,3 hPa 0,0 mm - 6,5 km/h 13,0 km/h SSW 0,0 W/qm 0,0 nein 22:00
22:050,8 °C 2,8 °C 3,3 °C 93 % 1032,2 hPa 0,2 mm 0,1 mm 4,7 km/h 13,0 km/h S 0,0 W/qm 0,0 nein 22:05
22:100,8 °C 2,8 °C 3,3 °C 93 % 1032,2 hPa 0,0 mm 0,1 mm 4,7 km/h 13,0 km/h SSW 0,0 W/qm 0,0 nein 22:10
22:150,8 °C 2,8 °C 3,3 °C 92 % 1032,3 hPa 0,0 mm - 3,2 km/h 13,0 km/h SSW 0,0 W/qm 0,0 nein 22:15
22:200,9 °C 2,8 °C 3,3 °C 92 % 1032,3 hPa 0,0 mm - 4,7 km/h 13,0 km/h SSW 0,0 W/qm 0,0 nein 22:20
22:250,9 °C 2,8 °C 3,3 °C 92 % 1032,3 hPa 0,0 mm - 6,5 km/h 13,0 km/h SSW 0,0 W/qm 0,0 nein 22:25
22:300,9 °C 2,8 °C 3,3 °C 92 % 1032,4 hPa 0,0 mm - 4,7 km/h 13,0 km/h SSW 0,0 W/qm 0,0 nein 22:30
22:350,9 °C 2,8 °C 3,3 °C 92 % 1032,5 hPa 0,0 mm - 3,2 km/h 13,0 km/h SW 0,0 W/qm 0,0 nein 22:35
22:400,9 °C 2,8 °C 3,3 °C 92 % 1032,6 hPa 0,0 mm - 4,7 km/h 11,2 km/h S 0,0 W/qm 0,0 nein 22:40
22:450,9 °C 2,8 °C 3,3 °C 92 % 1032,5 hPa 0,0 mm - 4,7 km/h 9,7 km/h SW 0,0 W/qm 0,0 nein 22:45
22:501,0 °C 2,8 °C 3,3 °C 92 % 1032,3 hPa 0,0 mm - 4,7 km/h 9,7 km/h SW 0,0 W/qm 0,0 nein 22:50
22:551,0 °C 2,8 °C 3,3 °C 92 % 1032,2 hPa 0,0 mm - 4,7 km/h 13,0 km/h WSW 0,0 W/qm 0,0 nein 22:55
23:001,0 °C 2,8 °C 3,3 °C 92 % 1032,2 hPa 0,0 mm - 4,7 km/h 13,0 km/h S 0,0 W/qm 0,0 nein 23:00
23:051,0 °C 2,8 °C 3,3 °C 92 % 1032,1 hPa 0,0 mm 0,1 mm 4,7 km/h 14,4 km/h S 0,0 W/qm 0,0 nein 23:05
23:101,0 °C 2,8 °C 3,3 °C 92 % 1032,1 hPa 0,0 mm 0,1 mm 4,7 km/h 14,4 km/h SSW 0,0 W/qm 0,0 nein 23:10
23:151,0 °C 2,8 °C 3,3 °C 92 % 1032,2 hPa 0,0 mm - 6,5 km/h 11,2 km/h SSW 0,0 W/qm 0,0 nein 23:15
23:201,0 °C 2,8 °C 3,3 °C 92 % 1032,0 hPa 0,0 mm - 6,5 km/h 11,2 km/h S 0,0 W/qm 0,0 nein 23:20
23:251,1 °C 2,8 °C 3,3 °C 92 % 1032,1 hPa 0,0 mm - 4,7 km/h 14,4 km/h SSW 0,0 W/qm 0,0 nein 23:25
23:301,1 °C 2,8 °C 3,3 °C 92 % 1032,0 hPa 0,0 mm - 4,7 km/h 14,4 km/h SSW 0,0 W/qm 0,0 nein 23:30
23:351,1 °C 2,8 °C 3,3 °C 92 % 1031,9 hPa 0,0 mm - 4,7 km/h 11,2 km/h S 0,0 W/qm 0,0 nein 23:35
23:401,1 °C 2,8 °C 3,3 °C 92 % 1031,7 hPa 0,0 mm - 6,5 km/h 11,2 km/h SSW 0,0 W/qm 0,0 nein 23:40
23:451,1 °C 2,8 °C 3,3 °C 92 % 1031,7 hPa 0,0 mm - 7,9 km/h 19,4 km/h SSW 0,0 W/qm 0,0 nein 23:45
23:501,1 °C 2,8 °C 3,3 °C 92 % 1031,6 hPa 0,0 mm - 7,9 km/h 19,4 km/h S 0,0 W/qm 0,0 nein 23:50
23:551,1 °C 2,8 °C 3,3 °C 92 % 1031,6 hPa 0,0 mm - 9,7 km/h 19,4 km/h S 0,0 W/qm 0,0 nein 23:55
Gesamt: -0,4 °C 2,6 °C 3,3 °C 93 % 1028,9 hPa 0,2 mm 2,1 mm 3,7 km/h 11,2 km/h 0 9,4 W/qm 0,0 nein

Insgesamt 288 Zeilen mal 13 Spalten = 3744 Werte werden angezeigt.

www.wetter-rosstal.de   •   www.wetter-franken.de   •   www.lightningmaps.org   •   Start   •   Kontakt / Datenschutz   •   PC-Kümmerer